Caldwell, NJ

7:09 PM EDT on July 23, 2019 (GMT -0400)
Essex County

Weather History for KCDW - May, 2019

Change the Weather History Date:

Tuesday, May 7, 2019

  Actual Average Record
Temperature  
Mean Temperature 64 °F -  
Max Temperature 78 °F 69 °F 93 °F (2000)
Min Temperature 51 °F 44 °F 28 °F (1970)
Degree Days  
Heating Degree Days 1    
Growing Degree Days 14 (Base 50)    
Moisture  
Dew Point 54 °F    
Average Humidity 76    
Maximum Humidity 100    
Minimum Humidity 42    
Precipitation  
Precipitation 0.18 in - - ()
Sea Level Pressure  
Sea Level Pressure 30.15 in    
Wind  
Wind Speed 4 mph (ESE)    
Max Wind Speed 10 mph    
Max Gust Speed 17 mph    
Visibility 9 miles    
Events Rain    
Averages and records for this station are not official NWS values.
T = Trace of Precipitation, MM = Missing Value Source: NWS Daily Summary

Daily Weather History Graph

Daily Weather History Graph

Search for Another Location

Airport or City:

Astronomy

May. 07, 2019 Rise Set
Actual Time 5:48 AM EDT 7:59 PM EDT
Civil Twilight 5:18 AM EDT 8:30 PM EDT
Nautical Twilight 4:40 AM EDT 9:07 PM EDT
Astronomical Twilight 3:59 AM EDT 9:48 PM EDT
Moon 7:51 AM EDT (5/7) 10:58 PM EDT (5/7)
Length of Visible Light 15h 12m
Length of Day
14h 11m
Waxing Crescent, 8% of the Moon is Illuminated
May 7
Waxing Crescent
May 11
First Quarter
May 18
Full
May 26
Last Quarter
Jun 3
New

Hourly Weather History & Observations

Time (EDT) Temp. Dew Point Humidity Pressure Visibility Wind Dir Wind Speed Gust Speed Precip Events Conditions
12:53 AM 53.1 °F 48.9 °F 86% 30.17 in 10.0 mi East 3.5 mph - N/A   Scattered Clouds
1:53 AM 53.1 °F 48.9 °F 86% 30.17 in 10.0 mi Calm Calm - N/A   Mostly Cloudy
2:53 AM 51.1 °F 48.9 °F 92% 30.17 in 10.0 mi Calm Calm - N/A   Scattered Clouds
3:27 AM 52.0 °F 50.0 °F 93% 30.16 in 10.0 mi South 3.5 mph - N/A   Mostly Cloudy
3:53 AM 53.1 °F 50.0 °F 89% 30.17 in 10.0 mi Calm Calm - N/A   Overcast
5:53 AM 55.0 °F 50.0 °F 83% 30.17 in 10.0 mi Calm Calm - N/A   Overcast
6:53 AM 55.0 °F 48.9 °F 80% 30.19 in 10.0 mi Calm Calm - N/A   Overcast
7:53 AM 55.9 °F 48.0 °F 75% 30.20 in 10.0 mi South 3.5 mph - N/A   Mostly Cloudy
8:53 AM 57.9 °F 48.9 °F 72% 30.20 in 10.0 mi Variable 4.6 mph - N/A   Overcast
9:53 AM 61.0 °F 50.0 °F 67% 30.21 in 10.0 mi Variable 5.8 mph - N/A   Overcast
10:53 AM 62.1 °F 52.0 °F 70% 30.20 in 10.0 mi SW 6.9 mph - N/A   Overcast
11:18 AM 64.0 °F 52.0 °F 65% 30.18 in 10.0 mi Variable 5.8 mph - N/A   Scattered Clouds
11:53 AM 66.9 °F 53.1 °F 61% 30.19 in 10.0 mi Variable 4.6 mph - N/A   Partly Cloudy
12:53 PM 70.0 °F 53.1 °F 55% 30.17 in 10.0 mi WSW 8.1 mph - N/A   Clear
1:53 PM 72.0 °F 52.0 °F 49% 30.15 in 10.0 mi SW 6.9 mph - N/A   Clear
2:53 PM 75.0 °F 54.0 °F 48% 30.13 in 10.0 mi SSW 10.4 mph - N/A   Clear
3:53 PM 75.0 °F 52.0 °F 44% 30.11 in 10.0 mi Variable 6.9 mph - N/A   Clear
4:53 PM 77.0 °F 52.0 °F 42% 30.09 in 10.0 mi Variable 6.9 mph - N/A   Clear
5:53 PM 75.9 °F 53.1 °F 45% 30.07 in 10.0 mi SW 9.2 mph - N/A   Clear
6:53 PM 75.9 °F 54.0 °F 46% 30.08 in 10.0 mi Variable 6.9 mph - N/A   Clear
7:53 PM 66.9 °F 59.0 °F 76% 30.12 in 6.0 mi North 8.1 mph 17.3 mph 0.01 in Rain Rain
8:04 PM 64.0 °F 61.0 °F 90% 30.11 in 2.5 mi NE 8.1 mph - 0.07 in Rain Rain
8:23 PM 63.0 °F 62.1 °F 97% 30.12 in 3.0 mi East 5.8 mph - 0.14 in Rain Rain
8:53 PM 63.0 °F 62.1 °F 97% 30.14 in 10.0 mi Variable 3.5 mph - 0.15 in   Overcast
9:02 PM 63.0 °F 62.1 °F 97% 30.13 in 9.0 mi NE 4.6 mph - N/A   Overcast
9:51 PM 62.6 °F 60.8 °F 94% 30.15 in 10.0 mi ENE 5.8 mph - 0.02 in   Overcast
9:53 PM 63.0 °F 61.0 °F 93% 30.16 in 10.0 mi NE 5.8 mph - 0.02 in   Overcast
10:03 PM 63.0 °F 62.1 °F 97% 30.14 in 10.0 mi East 5.8 mph - N/A   Overcast
10:53 PM 62.1 °F 61.0 °F 96% 30.16 in 10.0 mi NNW 3.5 mph - N/A   Clear
11:53 PM 61.0 °F 61.0 °F 100% 30.16 in 10.0 mi ENE 3.5 mph - N/A   Mostly Cloudy